Change the Weather History Date:

Monday, January 14, 2013

  Actual Average Record
Temperature  
Mean Temperature 64 °F -  
Max Temperature 68 °F 73 °F 78 °F (1998)
Min Temperature 59 °F 59 °F 46 °F (1997)
Degree Days  
Heating Degree Days 2    
Growing Degree Days 14 (Base 50)    
Moisture  
Dew Point 47 °F    
Average Humidity 54    
Maximum Humidity 88    
Minimum Humidity 30    
Precipitation  
Precipitation 0.00 in - - ()
Sea Level Pressure  
Sea Level Pressure 30.05 in    
Wind  
Wind Speed 8 mph ()    
Max Wind Speed 14 mph    
Max Gust Speed -    
Visibility 8.6 miles    
Events      
Averages and records for this station are not official NWS values.
T = Trace of Precipitation, MM = Missing Value Source: Averaged Metar Reports

Daily Weather History Graph

Daily Weather History Graph

Search for Another Location

Airport or City:

Trip Planner

Search our weather history database for the weather conditions in past years. The results will help you decide how hot, cold, wet, or windy it might be!

Date:

Astronomy

Jan. 14, 2013 Rise Set
Actual Time 7:13 AM CST 6:08 PM CST
Civil Twilight 6:49 AM CST 6:32 PM CST
Nautical Twilight 6:21 AM CST 6:59 PM CST
Astronomical Twilight 5:54 AM CST 7:26 PM CST
Moon 9:15 AM CST (1/14) 9:23 PM CST (1/14)
Length of Visible Light 11h 42m
Length of Day
10h 54m
Waxing Crescent, 11% of the Moon is Illuminated
Jan 14
Waxing Crescent
Jan 18
First Quarter
Jan 26
Full
Feb 3
Last Quarter
Feb 10
New

Hourly Weather History & Observations

Time (CST) Temp. Dew Point Humidity Pressure Visibility Wind Dir Wind Speed Gust Speed Precip Events Conditions
2:40 AM 61 °F 39 °F 32% 30.07 in 6 mi NNE 8.9 mph - -   Partly Cloudy
5:40 AM 60.8 °F 39.2 °F 45% 30.02 in 5.0 mi North 9.2 mph - N/A   Overcast
6:44 AM 60.8 °F 41.0 °F 48% 30.04 in 7.0 mi NNE 8.1 mph - N/A   Overcast
7:40 AM 60.8 °F 42.8 °F 52% 30.05 in 7.0 mi North 10.4 mph - N/A   Overcast
8:41 AM 62.6 °F 42.8 °F 48% 30.07 in 7.0 mi North 12.7 mph - N/A   Overcast
8:50 AM 60 °F 43 °F 42% 30.11 in 16 mi NNE 4.5 mph - -   Overcast
9:49 AM 62.6 °F 42.8 °F 48% 30.09 in 7.0 mi North 12.7 mph - N/A   Overcast
10:45 AM 62.6 °F 41.0 °F 45% 30.09 in 8.0 mi North 13.8 mph - N/A   Overcast
11:45 AM 65 °F 41 °F 30% 30.10 in 16 mi NE 4.5 mph - -   Overcast
11:48 AM 64.4 °F 41.0 °F 42% 30.04 in 10.0 mi North 11.5 mph - N/A   Overcast
12:40 PM 64.4 °F 41.0 °F 42% 30.04 in 10.0 mi NNE 11.5 mph - N/A   Overcast
1:45 PM 64.4 °F 41.0 °F 42% 30.04 in 10.0 mi NE 9.2 mph - N/A   Overcast
2:44 PM 66.2 °F 42.8 °F 43% 30.01 in 10.0 mi NE 11.5 mph - N/A   Overcast
2:45 PM 68 °F 45 °F 32% 30.04 in 16 mi NE 6.7 mph - -   Overcast
3:42 PM 66.2 °F 44.6 °F 46% 30.00 in 10.0 mi NE 11.5 mph - N/A   Overcast
4:40 PM 66.2 °F 48.2 °F 52% 30.01 in 8.0 mi NE 11.5 mph - N/A   Overcast
5:40 PM 65 °F 52 °F 52% 30.07 in 12 mi NE 8.9 mph - -   Mostly Cloudy
5:41 PM 64.4 °F 50.0 °F 59% 30.00 in 8.0 mi North 4.6 mph - N/A   Overcast
6:40 PM 64.4 °F 51.8 °F 64% 30.05 in 6.0 mi North 8.1 mph - N/A   Mostly Cloudy
7:41 PM 64.4 °F 53.6 °F 68% 30.06 in 6.0 mi North 8.1 mph - N/A   Mostly Cloudy
8:40 PM 62 °F 58 °F 83% 30.09 in 6 mi NNE 8.9 mph - -   Mostly Cloudy
8:50 PM 62.6 °F 57.2 °F 82% 30.06 in 6.0 mi NE 6.9 mph - N/A   Mostly Cloudy
9:44 PM 62.6 °F 57.2 °F 82% 30.05 in 6.0 mi NE 6.9 mph - N/A   Mostly Cloudy
10:49 PM 60.8 °F 57.2 °F 88% 30.05 in 6.0 mi North 11.5 mph - N/A   Mostly Cloudy
11:40 PM 60 °F 56 °F 83% 30.07 in 6 mi NNE 6.7 mph - -   Mostly Cloudy